Espace membre
Imprimable
Challenges > Delhalle - Habay-La-Neuve, 19/06/2010, BEL - Les Forges de la Forêt d'Anlier
Liste des rapports > Les Forges de la Forêt d'Anlier - Classement
Recherche: Page: [1]
22 Entrées
 
Les réclamations ne sont plus acceptées, les résultats sont considérés comme définitifs.
RangNrNomAgeIOCLigueEquipeRéelTempsTkmMoy.ScrPtsLocalité
1.652DESART Maxime16BELGTC1:21:091:21:194:17 14.0278877WEPION
2.742RATINCKX Christophe19BELRIWA1:23:351:23:444:25 13.61122835BIERGES
3.2499DECHAMBRE Rémy16BEL1:24:521:25:124:30 13.38144813BASTOGNE
4.2565GUÉRENNE Thomas17BEL1:31:511:32:354:53 12.31280696NEUVILLERS
5.2696MOREAU Antoine17BELJCCS1:33:351:34:054:58 12.12319665TOERNICH
6.2578HANSEN Jérome19BEL1:34:371:34:525:00 12.02329652MORHET
7.2579HANSEN Julien17BEL1:34:391:34:525:00 12.02330651MORHET
8.2708NICOLINI Christophe15BELOTC1:36:191:37:345:09 11.68389616FLEMALLE
9.741WECKMANS Michaël18BEL1:38:361:38:425:12 11.55413587HOGNOUL
10.2103BERUES Pierre Etienne11BEL1:46:391:47:215:39 10.62622445
11.2450BOTTIN Xavier16BEL1:48:051:49:365:47 10.40679415HABAY-LA-NEUVE
12.2813VERHHEGEN ARNAUD Arnaud17BELOTC1:49:021:50:175:49 10.34695401CHAPELLE LEZ HR
13.2278HARDY Nicolas16BEL1:50:461:52:185:55 10.15741372
14.2669MARIAVELLE Sylvain19BEL2:01:312:02:066:26 9.34880240WALTZING
14.2793TINANT Romain19BEL2:01:312:02:066:26 9.34880240ARLON
16.2272WILS Berenger16BEL2:03:032:04:196:33 9.17902222
17.2277STASSART Joachim16BEL2:05:142:06:456:41 8.99925198
18.2269VARLET Anthony16BEL2:07:122:08:286:46 8.87944177
19.2274GOMEZ Cyriac16BEL2:08:162:09:326:50 8.80953166
20.2449BOTTIN Jerome19BEL2:15:142:16:067:10 8.38991105HABAY-LA-NEUVE
21.2049NICOLAY William17BEL2:23:572:24:127:36 7.91100542
22.2218CHARLIER Thomas9BEL2:42:412:43:428:37 6.9610297GOSSELIES
DNF: abandon; DSQ: disqualifié; Vitesse en km/h
Page: [1]